N65JT KARA-KBTR

Flight info

Callsign N65JT
Flight time 0h 32m
Altitude 3000
Route ROSEY V70 LSU
Aircraft C172/L-V/N

Departure

Time 2026-05-08 01:46
Airport Acadiana Regional Airport (KARA)

Arrival

Time 2026-05-08 02:18
Airport Baton Rouge Metropolitan Airport (KBTR)
Time Latitude Longitude Altitude Speed Heading
2026-05-08 01:41 30.03257 -91.87713 20 ft 0 kts 133°
2026-05-08 01:42 30.03256 -91.87711 20 ft 1 kts 134°
2026-05-08 01:42 30.03231 -91.87704 20 ft 8 kts 202°
2026-05-08 01:42 30.03211 -91.87720 20 ft 0 kts 214°
2026-05-08 01:43 30.03198 -91.87736 20 ft 5 kts 233°
2026-05-08 01:43 30.03159 -91.87794 20 ft 11 kts 227°
2026-05-08 01:43 30.03097 -91.87876 19 ft 14 kts 239°
2026-05-08 01:44 30.03027 -91.87955 18 ft 15 kts 168°
2026-05-08 01:44 30.02916 -91.87925 17 ft 17 kts 168°
2026-05-08 01:44 30.02791 -91.87909 17 ft 17 kts 203°
2026-05-08 01:44 30.02749 -91.88032 17 ft 10 kts 259°
2026-05-08 01:45 30.02747 -91.88043 17 ft 0 kts 259°
2026-05-08 01:45 30.02745 -91.88057 17 ft 8 kts 264°
2026-05-08 01:45 30.02845 -91.88153 17 ft 39 kts 345°
2026-05-08 01:45 30.03215 -91.88259 85 ft 61 kts 345°
2026-05-08 01:46 30.03659 -91.88386 182 ft 72 kts 348°
2026-05-08 01:46 30.04171 -91.88546 337 ft 76 kts 346°
2026-05-08 01:46 30.04690 -91.88675 512 ft 75 kts 352°
2026-05-08 01:46 30.05211 -91.88788 683 ft 76 kts 351°
2026-05-08 01:47 30.05732 -91.88916 866 ft 75 kts 350°
2026-05-08 01:47 30.06229 -91.89062 1075 ft 71 kts 350°
2026-05-08 01:47 30.06712 -91.89210 1235 ft 73 kts 349°
2026-05-08 01:48 30.07642 -91.89152 1567 ft 70 kts 26°
2026-05-08 01:48 30.08067 -91.88892 1752 ft 69 kts 27°
2026-05-08 01:48 30.08484 -91.88619 1913 ft 69 kts 30°
2026-05-08 01:48 30.08896 -91.88320 2078 ft 70 kts 31°
2026-05-08 01:49 30.09308 -91.88010 2237 ft 71 kts 32°
2026-05-08 01:49 30.09724 -91.87691 2366 ft 76 kts 32°
2026-05-08 01:49 30.10187 -91.87327 2457 ft 83 kts 33°
2026-05-08 01:49 30.10677 -91.86933 2580 ft 86 kts 33°
2026-05-08 01:50 30.11172 -91.86533 2700 ft 88 kts 34°
2026-05-08 01:50 30.11683 -91.86117 2821 ft 90 kts 34°
2026-05-08 01:50 30.12201 -91.85697 2938 ft 91 kts 34°
2026-05-08 01:50 30.12737 -91.85262 2975 ft 99 kts 34°
2026-05-08 01:51 30.13325 -91.84782 2976 ft 103 kts 35°
2026-05-08 01:51 30.13905 -91.84303 2976 ft 103 kts 34°
2026-05-08 01:51 30.14495 -91.83822 2975 ft 103 kts 34°
2026-05-08 01:51 30.15079 -91.83347 2977 ft 102 kts 34°
2026-05-08 01:52 30.15659 -91.82877 2976 ft 102 kts 34°
2026-05-08 01:52 30.16246 -91.82403 2977 ft 102 kts 34°
2026-05-08 01:52 30.16826 -91.81933 2976 ft 102 kts 34°
2026-05-08 01:52 30.17410 -91.81459 2978 ft 102 kts 34°
2026-05-08 01:53 30.17988 -91.80992 2978 ft 102 kts 34°
2026-05-08 01:53 30.18576 -91.80517 2977 ft 102 kts 34°
2026-05-08 01:53 30.19159 -91.80044 2977 ft 102 kts 34°
2026-05-08 01:53 30.19736 -91.79578 2971 ft 103 kts 34°
2026-05-08 01:54 30.20328 -91.79099 2960 ft 103 kts 34°
2026-05-08 01:54 30.20912 -91.78627 2958 ft 102 kts 34°
2026-05-08 01:54 30.21500 -91.78152 2957 ft 101 kts 34°
2026-05-08 01:54 30.22078 -91.77685 2958 ft 101 kts 34°
2026-05-08 01:55 30.22659 -91.77214 2958 ft 101 kts 34°
2026-05-08 01:55 30.23237 -91.76744 2958 ft 101 kts 34°
2026-05-08 01:55 30.23815 -91.76276 2957 ft 101 kts 34°
2026-05-08 01:55 30.24393 -91.75809 2957 ft 101 kts 34°
2026-05-08 01:56 30.24968 -91.75343 2956 ft 101 kts 34°
2026-05-08 01:56 30.25545 -91.74876 2956 ft 101 kts 34°
2026-05-08 01:56 30.26125 -91.74406 2957 ft 101 kts 34°
2026-05-08 01:56 30.26701 -91.73940 2962 ft 101 kts 34°
2026-05-08 01:57 30.27282 -91.73469 2960 ft 102 kts 34°
2026-05-08 01:57 30.27868 -91.72994 2958 ft 102 kts 34°
2026-05-08 01:57 30.28444 -91.72527 2956 ft 101 kts 34°
2026-05-08 01:57 30.29021 -91.72060 2956 ft 101 kts 34°
2026-05-08 01:58 30.29603 -91.71589 2955 ft 102 kts 34°
2026-05-08 01:58 30.30184 -91.71117 2955 ft 102 kts 34°
2026-05-08 01:58 30.30764 -91.70645 2952 ft 102 kts 34°
2026-05-08 01:58 30.31352 -91.70168 2952 ft 102 kts 34°
2026-05-08 01:59 30.31812 -91.69555 2953 ft 102 kts 57°
2026-05-08 01:59 30.32145 -91.68833 2953 ft 102 kts 61°
2026-05-08 01:59 30.32463 -91.68094 2952 ft 102 kts 61°
2026-05-08 01:59 30.32772 -91.67361 2951 ft 102 kts 62°
2026-05-08 02:00 30.33087 -91.66611 2952 ft 102 kts 62°
2026-05-08 02:00 30.33393 -91.65879 2953 ft 102 kts 61°
2026-05-08 02:00 30.33703 -91.65138 2952 ft 102 kts 62°
2026-05-08 02:00 30.34012 -91.64397 2953 ft 102 kts 62°
2026-05-08 02:01 30.34322 -91.63654 2951 ft 102 kts 61°
2026-05-08 02:01 30.34627 -91.62917 2951 ft 102 kts 61°
2026-05-08 02:01 30.34939 -91.62174 2949 ft 101 kts 61°
2026-05-08 02:01 30.35245 -91.61444 2949 ft 101 kts 61°
2026-05-08 02:02 30.35550 -91.60706 2948 ft 101 kts 61°
2026-05-08 02:02 30.35857 -91.59969 2947 ft 101 kts 61°
2026-05-08 02:02 30.36163 -91.59238 2949 ft 101 kts 61°
2026-05-08 02:02 30.36473 -91.58495 2949 ft 102 kts 62°
2026-05-08 02:03 30.36782 -91.57752 2951 ft 102 kts 62°
2026-05-08 02:03 30.37087 -91.57019 2951 ft 101 kts 61°
2026-05-08 02:03 30.37393 -91.56282 2951 ft 101 kts 61°
2026-05-08 02:03 30.37701 -91.55543 2950 ft 101 kts 61°
2026-05-08 02:04 30.38008 -91.54806 2951 ft 101 kts 61°
2026-05-08 02:04 30.38319 -91.54060 2948 ft 102 kts 61°
2026-05-08 02:04 30.38623 -91.53329 2949 ft 102 kts 61°
2026-05-08 02:04 30.38931 -91.52586 2948 ft 101 kts 62°
2026-05-08 02:05 30.39236 -91.51852 2948 ft 101 kts 61°
2026-05-08 02:05 30.39543 -91.51114 2948 ft 102 kts 61°
2026-05-08 02:05 30.39847 -91.50382 2948 ft 101 kts 62°
2026-05-08 02:05 30.40159 -91.49635 2949 ft 101 kts 61°
2026-05-08 02:06 30.40462 -91.48903 2948 ft 102 kts 61°
2026-05-08 02:06 30.40771 -91.48162 2951 ft 102 kts 61°
2026-05-08 02:06 30.41076 -91.47424 2950 ft 101 kts 61°
2026-05-08 02:06 30.41381 -91.46688 2950 ft 101 kts 61°
2026-05-08 02:07 30.41687 -91.45949 2950 ft 101 kts 61°
2026-05-08 02:07 30.41992 -91.45214 2949 ft 101 kts 61°
2026-05-08 02:07 30.42302 -91.44471 2949 ft 101 kts 61°
2026-05-08 02:07 30.42604 -91.43741 2950 ft 101 kts 61°
2026-05-08 02:08 30.42909 -91.43008 2951 ft 101 kts 61°
2026-05-08 02:08 30.43213 -91.42274 2952 ft 101 kts 61°
2026-05-08 02:08 30.43518 -91.41539 2951 ft 101 kts 61°
2026-05-08 02:08 30.43827 -91.40794 2951 ft 101 kts 61°
2026-05-08 02:09 30.44129 -91.40065 2953 ft 101 kts 61°
2026-05-08 02:09 30.44437 -91.39321 2952 ft 101 kts 61°
2026-05-08 02:09 30.44742 -91.38584 2951 ft 101 kts 61°
2026-05-08 02:09 30.45044 -91.37854 2951 ft 101 kts 61°
2026-05-08 02:10 30.45352 -91.37112 2951 ft 101 kts 61°
2026-05-08 02:10 30.45654 -91.36380 2953 ft 101 kts 61°
2026-05-08 02:10 30.45959 -91.35646 2955 ft 101 kts 61°
2026-05-08 02:10 30.46264 -91.34907 2955 ft 101 kts 62°
2026-05-08 02:11 30.46570 -91.34169 2958 ft 101 kts 61°
2026-05-08 02:11 30.46880 -91.33429 2956 ft 101 kts 61°
2026-05-08 02:11 30.47186 -91.32701 2955 ft 101 kts 61°
2026-05-08 02:11 30.47497 -91.31956 2939 ft 103 kts 61°
2026-05-08 02:12 30.47818 -91.31181 2826 ft 109 kts 62°
2026-05-08 02:12 30.48137 -91.30399 2700 ft 106 kts 62°
2026-05-08 02:12 30.48441 -91.29633 2582 ft 104 kts 66°
2026-05-08 02:12 30.48568 -91.28807 2480 ft 103 kts 79°
2026-05-08 02:13 30.48629 -91.27990 2383 ft 102 kts 81°
2026-05-08 02:13 30.48684 -91.27171 2285 ft 101 kts 80°
2026-05-08 02:13 30.48739 -91.26369 2190 ft 100 kts 80°
2026-05-08 02:13 30.48793 -91.25560 2081 ft 101 kts 79°
2026-05-08 02:14 30.48847 -91.24757 1956 ft 100 kts 79°
2026-05-08 02:14 30.48900 -91.23956 1837 ft 99 kts 79°
2026-05-08 02:14 30.48954 -91.23155 1714 ft 98 kts 79°
2026-05-08 02:14 30.49007 -91.22375 1588 ft 97 kts 79°
2026-05-08 02:15 30.49063 -91.21591 1465 ft 97 kts 78°
2026-05-08 02:15 30.49116 -91.20817 1345 ft 97 kts 79°
2026-05-08 02:15 30.49167 -91.20056 1274 ft 86 kts 78°
2026-05-08 02:15 30.49216 -91.19381 1142 ft 82 kts 73°
2026-05-08 02:16 30.49484 -91.18831 1000 ft 77 kts 45°
2026-05-08 02:16 30.49835 -91.18398 927 ft 71 kts 41°
2026-05-08 02:16 30.50187 -91.17993 828 ft 71 kts 40°
2026-05-08 02:16 30.50541 -91.17596 729 ft 70 kts 40°
2026-05-08 02:17 30.50890 -91.17207 629 ft 69 kts 39°
2026-05-08 02:17 30.51225 -91.16832 560 ft 62 kts 39°
2026-05-08 02:17 30.51544 -91.16482 454 ft 62 kts 39°
2026-05-08 02:17 30.51841 -91.16127 372 ft 61 kts 40°
2026-05-08 02:18 30.52145 -91.15771 281 ft 61 kts 39°
2026-05-08 02:18 30.52460 -91.15430 204 ft 62 kts 37°
2026-05-08 02:18 30.52773 -91.15086 115 ft 62 kts 40°
2026-05-08 02:18 30.53047 -91.14784 66 ft 38 kts 42°
2026-05-08 02:19 30.53079 -91.14674 65 ft 13 kts 50°
2026-05-08 02:19 30.53125 -91.14593 65 ft 9 kts 107°
2026-05-08 02:19 30.53100 -91.14593 65 ft 0 kts 128°